{"data":{"norad_id":58693,"epoch":"2026-09-21T22:08:39.599520Z","epoch_age_seconds":125446,"freshness":"FRESH","line1":"1 58693U 23212C   26264.92268055 -.00000101  00000+0  49288-4 0  9995","line2":"2 58693  50.0009 349.8095 0000541  41.2103 318.8816 13.41465410134244","mean_motion":13.4146541,"eccentricity":5.41e-5,"inclination_deg":50.0009,"raan_deg":349.8095,"arg_perigee_deg":41.2103,"mean_anomaly_deg":318.8816,"bstar":4.9288e-5,"rev_number":13424,"period_min":107.34529487421,"perigee_km":1103.4206394264,"apogee_km":1104.2301877595,"semimajor_km":7481.962413593,"source":"CELESTRAK","updated_at":"2026-09-22T09:00:26.790263Z"}}